Year,Month,Day,Hour,Minute,Value (Times are PST for temperature in C)
2018,06,20,00,00,15.90
2018,06,20,00,01,15.90
2018,06,20,00,02,15.90
2018,06,20,00,03,15.90
2018,06,20,00,04,15.90
2018,06,20,00,05,15.90
2018,06,20,00,06,15.90
2018,06,20,00,07,15.90
2018,06,20,00,08,15.90
2018,06,20,00,09,16.00
2018,06,20,00,10,16.00
2018,06,20,00,11,16.00
2018,06,20,00,12,16.00
2018,06,20,00,13,16.00
2018,06,20,00,14,16.00
2018,06,20,00,15,16.00
2018,06,20,00,16,16.00
2018,06,20,00,17,16.00
2018,06,20,00,18,16.00
2018,06,20,00,19,16.00
2018,06,20,00,20,16.00
2018,06,20,00,21,16.00
2018,06,20,00,22,16.00
2018,06,20,00,23,16.00
2018,06,20,00,24,16.00
2018,06,20,00,25,15.90
2018,06,20,00,26,15.90
2018,06,20,00,27,15.90
2018,06,20,00,28,15.80
2018,06,20,00,29,15.80
2018,06,20,00,30,15.80
2018,06,20,00,31,15.80
2018,06,20,00,32,15.70
2018,06,20,00,33,15.70
2018,06,20,00,34,15.70
2018,06,20,00,35,15.70
2018,06,20,00,36,15.60
2018,06,20,00,37,15.60
2018,06,20,00,38,15.60
2018,06,20,00,39,15.60
2018,06,20,00,40,15.60
2018,06,20,00,41,15.60
2018,06,20,00,42,15.50
2018,06,20,00,43,15.50
2018,06,20,00,44,15.50
2018,06,20,00,45,15.50
2018,06,20,00,46,15.50
2018,06,20,00,47,15.40
2018,06,20,00,48,15.40
2018,06,20,00,49,15.40
2018,06,20,00,50,15.40
2018,06,20,00,51,15.40
2018,06,20,00,52,15.40
2018,06,20,00,53,15.40
2018,06,20,00,54,15.30
2018,06,20,00,55,15.30
2018,06,20,00,56,15.30
2018,06,20,00,57,15.30
2018,06,20,00,58,15.30
2018,06,20,00,59,15.30
2018,06,20,01,00,15.30
2018,06,20,01,01,15.30
2018,06,20,01,02,15.40
2018,06,20,01,03,15.40
2018,06,20,01,04,15.40
2018,06,20,01,05,15.40
2018,06,20,01,06,15.40
2018,06,20,01,07,15.40
2018,06,20,01,08,15.40
2018,06,20,01,09,15.40
2018,06,20,01,10,15.40
2018,06,20,01,11,15.40
2018,06,20,01,12,15.50
2018,06,20,01,13,15.50
2018,06,20,01,14,15.50
2018,06,20,01,15,15.50
2018,06,20,01,16,15.50
2018,06,20,01,17,15.50
2018,06,20,01,18,15.50
2018,06,20,01,19,15.50
2018,06,20,01,20,15.50
2018,06,20,01,21,15.50
2018,06,20,01,22,15.50
2018,06,20,01,23,15.50
2018,06,20,01,24,15.50
2018,06,20,01,25,15.50
2018,06,20,01,26,15.50
2018,06,20,01,27,15.50
2018,06,20,01,28,15.50
2018,06,20,01,29,15.50
2018,06,20,01,30,15.50
2018,06,20,01,31,15.50
2018,06,20,01,32,15.50
2018,06,20,01,33,15.50
2018,06,20,01,34,15.50
2018,06,20,01,35,15.60
2018,06,20,01,36,15.60
2018,06,20,01,37,15.60
2018,06,20,01,38,15.60
2018,06,20,01,39,15.60
2018,06,20,01,40,15.60
2018,06,20,01,41,15.60
2018,06,20,01,42,15.60
2018,06,20,01,43,15.60
2018,06,20,01,44,15.60
2018,06,20,01,45,15.60
2018,06,20,01,46,15.60
2018,06,20,01,47,15.60
2018,06,20,01,48,15.60
2018,06,20,01,49,15.60
2018,06,20,01,50,15.50
2018,06,20,01,51,15.50
2018,06,20,01,52,15.50
2018,06,20,01,53,15.50
2018,06,20,01,54,15.40
2018,06,20,01,55,15.40
2018,06,20,01,56,15.40
2018,06,20,01,57,15.30
2018,06,20,01,58,15.30
2018,06,20,01,59,15.20
2018,06,20,02,00,15.20
2018,06,20,02,01,15.10
2018,06,20,02,02,15.10
2018,06,20,02,03,15.10
2018,06,20,02,04,15.00
2018,06,20,02,05,15.00
2018,06,20,02,06,14.90
2018,06,20,02,07,14.90
2018,06,20,02,08,14.90
2018,06,20,02,09,14.90
2018,06,20,02,10,14.90
2018,06,20,02,11,14.90
2018,06,20,02,12,14.90
2018,06,20,02,13,14.90
2018,06,20,02,14,14.80
2018,06,20,02,15,14.80
2018,06,20,02,16,14.80
2018,06,20,02,17,14.80
2018,06,20,02,18,14.90
2018,06,20,02,19,14.90
2018,06,20,02,20,14.80
2018,06,20,02,21,14.80
2018,06,20,02,22,14.80
2018,06,20,02,23,14.80
2018,06,20,02,24,14.80
2018,06,20,02,25,14.80
2018,06,20,02,26,14.80
2018,06,20,02,27,14.80
2018,06,20,02,28,14.80
2018,06,20,02,29,14.80
2018,06,20,02,30,14.80
2018,06,20,02,31,14.80
2018,06,20,02,32,14.80
2018,06,20,02,33,14.80
2018,06,20,02,34,14.80
2018,06,20,02,35,14.80
2018,06,20,02,36,14.80
2018,06,20,02,37,14.80
2018,06,20,02,38,14.80
2018,06,20,02,39,14.80
2018,06,20,02,40,14.80
2018,06,20,02,41,14.80
2018,06,20,02,42,14.80
2018,06,20,02,43,14.80
2018,06,20,02,44,14.80
2018,06,20,02,45,14.80
2018,06,20,02,46,14.80
2018,06,20,02,47,14.80
2018,06,20,02,48,14.80
2018,06,20,02,49,14.80
2018,06,20,02,50,14.80
2018,06,20,02,51,14.80
2018,06,20,02,52,14.70
2018,06,20,02,53,14.70
2018,06,20,02,54,14.70
2018,06,20,02,55,14.70
2018,06,20,02,56,14.70
2018,06,20,02,57,14.70
2018,06,20,02,58,14.60
2018,06,20,02,59,14.60
2018,06,20,03,00,14.60
2018,06,20,03,01,14.70
2018,06,20,03,02,14.70
2018,06,20,03,03,14.70
2018,06,20,03,04,14.70
2018,06,20,03,05,14.70
2018,06,20,03,06,14.70
2018,06,20,03,07,14.70
2018,06,20,03,08,14.70
2018,06,20,03,09,14.70
2018,06,20,03,10,14.70
2018,06,20,03,11,14.70
2018,06,20,03,12,14.60
2018,06,20,03,13,14.60
2018,06,20,03,14,14.60
2018,06,20,03,15,14.60
2018,06,20,03,16,14.60
2018,06,20,03,17,14.50
2018,06,20,03,18,14.50
2018,06,20,03,19,14.50
2018,06,20,03,20,14.40
2018,06,20,03,21,14.40
2018,06,20,03,22,14.40
2018,06,20,03,23,14.30
2018,06,20,03,24,14.30
2018,06,20,03,25,14.30
2018,06,20,03,26,14.30
2018,06,20,03,27,14.30
2018,06,20,03,28,14.20
2018,06,20,03,29,14.20
2018,06,20,03,30,14.20
2018,06,20,03,31,14.20
2018,06,20,03,32,14.20
2018,06,20,03,33,14.10
2018,06,20,03,34,14.10
2018,06,20,03,35,14.10
2018,06,20,03,36,14.10
2018,06,20,03,37,14.10
2018,06,20,03,38,14.00
2018,06,20,03,39,14.00
2018,06,20,03,40,14.00
2018,06,20,03,41,14.00
2018,06,20,03,42,13.90
2018,06,20,03,43,13.90
2018,06,20,03,44,13.90
2018,06,20,03,45,13.90
2018,06,20,03,46,13.90
2018,06,20,03,47,13.80
2018,06,20,03,48,13.80
2018,06,20,03,49,13.80
2018,06,20,03,50,13.80
2018,06,20,03,51,13.80
2018,06,20,03,52,13.80
2018,06,20,03,53,13.80
2018,06,20,03,54,13.80
2018,06,20,03,55,13.80
2018,06,20,03,56,13.70
2018,06,20,03,57,13.70
2018,06,20,03,58,13.70
2018,06,20,03,59,13.70
2018,06,20,04,00,13.70
2018,06,20,04,01,13.70
2018,06,20,04,02,13.60
2018,06,20,04,03,13.60
2018,06,20,04,04,13.60
2018,06,20,04,05,13.60
2018,06,20,04,06,13.60
2018,06,20,04,07,13.60
2018,06,20,04,08,13.50
2018,06,20,04,09,13.50
2018,06,20,04,10,13.50
2018,06,20,04,11,13.40
2018,06,20,04,12,13.40
2018,06,20,04,13,13.40
2018,06,20,04,14,13.40
2018,06,20,04,15,13.40
2018,06,20,04,16,13.40
2018,06,20,04,17,13.40
2018,06,20,04,18,13.40
2018,06,20,04,19,13.40
2018,06,20,04,20,13.40
2018,06,20,04,21,13.40
2018,06,20,04,22,13.40
2018,06,20,04,23,13.30
2018,06,20,04,24,13.30
2018,06,20,04,25,13.30
2018,06,20,04,26,13.30
2018,06,20,04,27,13.30
2018,06,20,04,28,13.30
2018,06,20,04,29,13.20
2018,06,20,04,30,13.20
2018,06,20,04,31,13.20
2018,06,20,04,32,13.20
2018,06,20,04,33,13.20
2018,06,20,04,34,13.20
2018,06,20,04,35,13.20
2018,06,20,04,36,13.10
2018,06,20,04,37,13.10
2018,06,20,04,38,13.10
2018,06,20,04,39,13.00
2018,06,20,04,40,13.00
2018,06,20,04,41,13.00
2018,06,20,04,42,13.00
2018,06,20,04,43,12.90
2018,06,20,04,44,12.90
2018,06,20,04,45,12.90
2018,06,20,04,46,12.90
2018,06,20,04,47,12.90
2018,06,20,04,48,12.90
2018,06,20,04,49,12.80
2018,06,20,04,50,12.80
2018,06,20,04,51,12.80
2018,06,20,04,52,12.80
2018,06,20,04,53,12.80
2018,06,20,04,54,12.70
2018,06,20,04,55,12.70
2018,06,20,04,56,12.70
2018,06,20,04,57,12.70
2018,06,20,04,58,12.70
2018,06,20,04,59,12.70
2018,06,20,05,00,12.70
2018,06,20,05,01,12.70
2018,06,20,05,02,12.70
2018,06,20,05,03,12.70
2018,06,20,05,04,12.70
2018,06,20,05,05,12.70
2018,06,20,05,06,12.70
2018,06,20,05,07,12.70
2018,06,20,05,08,12.70
2018,06,20,05,09,12.60
2018,06,20,05,10,12.60
2018,06,20,05,11,12.60
2018,06,20,05,12,12.60
2018,06,20,05,13,12.60
2018,06,20,05,14,12.60
2018,06,20,05,15,12.60
2018,06,20,05,16,12.60
2018,06,20,05,17,12.50
2018,06,20,05,18,12.50
2018,06,20,05,19,12.50
2018,06,20,05,20,12.50
2018,06,20,05,21,12.40
2018,06,20,05,22,12.40
2018,06,20,05,23,12.40
2018,06,20,05,24,12.40
2018,06,20,05,25,12.40
2018,06,20,05,26,12.40
2018,06,20,05,27,12.40
2018,06,20,05,28,12.40
2018,06,20,05,29,12.40
2018,06,20,05,30,12.40
2018,06,20,05,31,12.40
2018,06,20,05,32,12.40
2018,06,20,05,33,12.50
2018,06,20,05,34,12.50
2018,06,20,05,35,12.50
2018,06,20,05,36,12.60
2018,06,20,05,37,12.60
2018,06,20,05,38,12.60
2018,06,20,05,39,12.60
2018,06,20,05,40,12.60
2018,06,20,05,41,12.60
2018,06,20,05,42,12.60
2018,06,20,05,43,12.60
2018,06,20,05,44,12.60
2018,06,20,05,45,12.60
2018,06,20,05,46,12.60
2018,06,20,05,47,12.60
2018,06,20,05,48,12.60
2018,06,20,05,49,12.60
2018,06,20,05,50,12.60
2018,06,20,05,51,12.60
2018,06,20,05,52,12.60
2018,06,20,05,53,12.60
2018,06,20,05,54,12.60
2018,06,20,05,55,12.60
2018,06,20,05,56,12.60
2018,06,20,05,57,12.60
2018,06,20,05,58,12.60
2018,06,20,05,59,12.60
2018,06,20,06,00,12.70
2018,06,20,06,01,12.70
2018,06,20,06,02,12.70
2018,06,20,06,03,12.70
2018,06,20,06,04,12.70
2018,06,20,06,05,12.70
2018,06,20,06,06,12.70
2018,06,20,06,07,12.70
2018,06,20,06,08,12.60
2018,06,20,06,09,12.60
2018,06,20,06,10,12.60
2018,06,20,06,11,12.60
2018,06,20,06,12,12.60
2018,06,20,06,13,12.60
2018,06,20,06,14,12.60
2018,06,20,06,15,12.70
2018,06,20,06,16,12.70
2018,06,20,06,17,12.70
2018,06,20,06,18,12.70
2018,06,20,06,19,12.70
2018,06,20,06,20,12.70
2018,06,20,06,21,12.70
2018,06,20,06,22,12.70
2018,06,20,06,23,12.70
2018,06,20,06,24,12.70
2018,06,20,06,25,12.70
2018,06,20,06,26,12.80
2018,06,20,06,27,12.80
2018,06,20,06,28,12.80
2018,06,20,06,29,12.80
2018,06,20,06,30,12.80
2018,06,20,06,31,12.80
2018,06,20,06,32,12.80
2018,06,20,06,33,12.80
2018,06,20,06,34,12.80
2018,06,20,06,35,12.90
2018,06,20,06,36,12.90
2018,06,20,06,37,12.90
2018,06,20,06,38,12.90
2018,06,20,06,39,12.90
2018,06,20,06,40,13.00
2018,06,20,06,41,13.00
2018,06,20,06,42,13.00
2018,06,20,06,43,13.10
2018,06,20,06,44,13.10
2018,06,20,06,45,13.10
2018,06,20,06,46,13.10
2018,06,20,06,47,13.10
2018,06,20,06,48,13.10
2018,06,20,06,49,13.10
2018,06,20,06,50,13.10
2018,06,20,06,51,13.10
2018,06,20,06,52,13.10
2018,06,20,06,53,13.10
2018,06,20,06,54,13.10
2018,06,20,06,55,13.20
2018,06,20,06,56,13.20
2018,06,20,06,57,13.20
2018,06,20,06,58,13.20
2018,06,20,06,59,13.20
2018,06,20,07,00,13.20
2018,06,20,07,01,13.20
2018,06,20,07,02,13.20
2018,06,20,07,03,13.20
2018,06,20,07,04,13.30
2018,06,20,07,05,13.30
2018,06,20,07,06,13.30
2018,06,20,07,07,13.30
2018,06,20,07,08,13.30
2018,06,20,07,09,13.30
2018,06,20,07,10,13.30
2018,06,20,07,11,13.40
2018,06,20,07,12,13.40
2018,06,20,07,13,13.40
2018,06,20,07,14,13.40
2018,06,20,07,15,13.40
2018,06,20,07,16,13.50
2018,06,20,07,17,13.50
2018,06,20,07,18,13.50
2018,06,20,07,19,13.60
2018,06,20,07,20,13.60
2018,06,20,07,21,13.60
2018,06,20,07,22,13.60
2018,06,20,07,23,13.70
2018,06,20,07,24,13.70
2018,06,20,07,25,13.70
2018,06,20,07,26,13.80
2018,06,20,07,27,13.80
2018,06,20,07,28,13.80
2018,06,20,07,29,13.80
2018,06,20,07,30,13.90
2018,06,20,07,31,13.90
2018,06,20,07,32,13.90
2018,06,20,07,33,13.90
2018,06,20,07,34,13.90
2018,06,20,07,35,13.90
2018,06,20,07,36,13.90
2018,06,20,07,37,13.90
2018,06,20,07,38,13.90
2018,06,20,07,39,13.90
2018,06,20,07,40,13.90
2018,06,20,07,41,13.90
2018,06,20,07,42,13.90
2018,06,20,07,43,13.90
2018,06,20,07,44,14.00
2018,06,20,07,45,14.00
2018,06,20,07,46,14.00
2018,06,20,07,47,14.10
2018,06,20,07,48,14.10
2018,06,20,07,49,14.20
2018,06,20,07,50,14.20
2018,06,20,07,51,14.30
2018,06,20,07,52,14.40
2018,06,20,07,53,14.50
2018,06,20,07,54,14.50
2018,06,20,07,55,14.60
2018,06,20,07,56,14.70
2018,06,20,07,57,14.80
2018,06,20,07,58,14.80
2018,06,20,07,59,14.90
2018,06,20,08,00,15.00
2018,06,20,08,01,15.00
2018,06,20,08,02,15.10
2018,06,20,08,03,15.20
2018,06,20,08,04,15.20
2018,06,20,08,05,15.30
2018,06,20,08,06,15.30
2018,06,20,08,07,15.30
2018,06,20,08,08,15.30
2018,06,20,08,09,15.30
2018,06,20,08,10,15.20
2018,06,20,08,11,15.20
2018,06,20,08,12,15.20
2018,06,20,08,13,15.10
2018,06,20,08,14,15.10
2018,06,20,08,15,15.00
2018,06,20,08,16,15.00
2018,06,20,08,17,15.00
2018,06,20,08,18,15.00
2018,06,20,08,19,14.90
2018,06,20,08,20,14.90
2018,06,20,08,21,14.90
2018,06,20,08,22,14.90
2018,06,20,08,23,14.90
2018,06,20,08,24,14.90
2018,06,20,08,25,15.00
2018,06,20,08,26,15.00
2018,06,20,08,27,15.10
2018,06,20,08,28,15.10
2018,06,20,08,29,15.10
2018,06,20,08,30,15.10
2018,06,20,08,31,15.20
2018,06,20,08,32,15.20
2018,06,20,08,33,15.20
2018,06,20,08,34,15.30
2018,06,20,08,35,15.30
2018,06,20,08,36,15.30
2018,06,20,08,37,15.40
2018,06,20,08,38,15.40
2018,06,20,08,39,15.50
2018,06,20,08,40,15.50
2018,06,20,08,41,15.60
2018,06,20,08,42,15.70
2018,06,20,08,43,15.70
2018,06,20,08,44,15.80
2018,06,20,08,45,15.80
2018,06,20,08,46,15.90
2018,06,20,08,47,15.90
2018,06,20,08,48,15.80
2018,06,20,08,49,15.80
2018,06,20,08,50,15.80
2018,06,20,08,51,15.70
2018,06,20,08,52,15.70
2018,06,20,08,53,15.70
2018,06,20,08,54,15.70
2018,06,20,08,55,15.70
2018,06,20,08,56,15.70
2018,06,20,08,57,15.70
2018,06,20,08,58,15.80
2018,06,20,08,59,15.80
2018,06,20,09,00,15.80
2018,06,20,09,01,15.80
2018,06,20,09,02,15.90
2018,06,20,09,03,15.90
2018,06,20,09,04,16.00
2018,06,20,09,05,16.00
2018,06,20,09,06,16.10
2018,06,20,09,07,16.10
2018,06,20,09,08,16.20
2018,06,20,09,09,16.30
2018,06,20,09,10,16.40
2018,06,20,09,11,16.50
2018,06,20,09,12,16.60
2018,06,20,09,13,16.70
2018,06,20,09,14,16.90
2018,06,20,09,15,17.00
2018,06,20,09,16,17.20
2018,06,20,09,17,17.30
2018,06,20,09,18,17.40
2018,06,20,09,19,17.50
2018,06,20,09,20,17.60
2018,06,20,09,21,17.70
2018,06,20,09,22,17.70
2018,06,20,09,23,17.70
2018,06,20,09,24,17.70
2018,06,20,09,25,17.70
2018,06,20,09,26,17.80
2018,06,20,09,27,17.80
2018,06,20,09,28,17.80
2018,06,20,09,29,17.90
2018,06,20,09,30,18.00
2018,06,20,09,31,18.10
2018,06,20,09,32,18.20
2018,06,20,09,33,18.30
2018,06,20,09,34,18.30
2018,06,20,09,35,18.40
2018,06,20,09,36,18.40
2018,06,20,09,37,18.30
2018,06,20,09,38,18.20
2018,06,20,09,39,18.10
2018,06,20,09,40,17.90
2018,06,20,09,41,17.70
2018,06,20,09,42,17.50
2018,06,20,09,43,17.40
2018,06,20,09,44,17.30
2018,06,20,09,45,17.20
2018,06,20,09,46,17.10
2018,06,20,09,47,17.00
2018,06,20,09,48,16.90
2018,06,20,09,49,16.90
2018,06,20,09,50,16.80
2018,06,20,09,51,16.80
2018,06,20,09,52,16.80
2018,06,20,09,53,16.80
2018,06,20,09,54,16.90
2018,06,20,09,55,17.00
2018,06,20,09,56,17.10
2018,06,20,09,57,17.20
2018,06,20,09,58,17.30
2018,06,20,09,59,17.30
2018,06,20,10,00,17.40
2018,06,20,10,01,17.50
2018,06,20,10,02,17.70
2018,06,20,10,03,17.80
2018,06,20,10,04,17.90
2018,06,20,10,05,18.10
2018,06,20,10,06,18.20
2018,06,20,10,07,18.30
2018,06,20,10,08,18.30
2018,06,20,10,09,18.40
2018,06,20,10,10,18.40
2018,06,20,10,11,18.50
2018,06,20,10,12,18.60
2018,06,20,10,13,18.70
2018,06,20,10,14,18.80
2018,06,20,10,15,18.90
2018,06,20,10,16,19.00
2018,06,20,10,17,19.00
2018,06,20,10,18,19.10
2018,06,20,10,19,19.20
2018,06,20,10,20,19.30
2018,06,20,10,21,19.30
2018,06,20,10,22,19.40
2018,06,20,10,23,19.40
2018,06,20,10,24,19.40
2018,06,20,10,25,19.40
2018,06,20,10,26,19.40
2018,06,20,10,27,19.40
2018,06,20,10,28,19.40
2018,06,20,10,29,19.40
2018,06,20,10,30,19.40
2018,06,20,10,31,19.40
2018,06,20,10,32,19.40
2018,06,20,10,33,19.40
2018,06,20,10,34,19.40
2018,06,20,10,35,19.40
2018,06,20,10,36,19.30
2018,06,20,10,37,19.20
2018,06,20,10,38,19.20
2018,06,20,10,39,19.20
2018,06,20,10,40,19.20
2018,06,20,10,41,19.10
2018,06,20,10,42,19.20
2018,06,20,10,43,19.20
2018,06,20,10,44,19.20
2018,06,20,10,45,19.20
2018,06,20,10,46,19.10
2018,06,20,10,47,19.10
2018,06,20,10,48,19.10
2018,06,20,10,49,19.10
2018,06,20,10,50,19.20
2018,06,20,10,51,19.20
2018,06,20,10,52,19.20
2018,06,20,10,53,19.30
2018,06,20,10,54,19.30
2018,06,20,10,55,19.30
2018,06,20,10,56,19.40
2018,06,20,10,57,19.40
2018,06,20,10,58,19.40
2018,06,20,10,59,19.50
2018,06,20,11,00,19.50
2018,06,20,11,01,19.60
2018,06,20,11,02,19.60
2018,06,20,11,03,19.70
2018,06,20,11,04,19.80
2018,06,20,11,05,19.90
2018,06,20,11,06,19.90
2018,06,20,11,07,20.00
2018,06,20,11,08,20.10
2018,06,20,11,09,20.10
2018,06,20,11,10,20.10
2018,06,20,11,11,20.20
2018,06,20,11,12,20.20
2018,06,20,11,13,20.20
2018,06,20,11,14,20.20
2018,06,20,11,15,20.30
2018,06,20,11,16,20.30
2018,06,20,11,17,20.40
2018,06,20,11,18,20.50
2018,06,20,11,19,20.70
2018,06,20,11,20,20.80
2018,06,20,11,21,20.80
2018,06,20,11,22,20.80
2018,06,20,11,23,20.80
2018,06,20,11,24,20.80
2018,06,20,11,25,20.80
2018,06,20,11,26,20.80
2018,06,20,11,27,20.70
2018,06,20,11,28,20.70
2018,06,20,11,29,20.70
2018,06,20,11,30,20.80
2018,06,20,11,31,20.80
2018,06,20,11,32,20.80
2018,06,20,11,33,20.90
2018,06,20,11,34,20.90
2018,06,20,11,35,20.90
2018,06,20,11,36,20.90
2018,06,20,11,37,21.00
2018,06,20,11,38,21.00
2018,06,20,11,39,21.10
2018,06,20,11,40,21.10
2018,06,20,11,41,21.20
2018,06,20,11,42,21.20
2018,06,20,11,43,21.20
2018,06,20,11,44,21.10
2018,06,20,11,45,21.00
2018,06,20,11,46,20.80
2018,06,20,11,47,20.60
2018,06,20,11,48,20.50
2018,06,20,11,49,20.30
2018,06,20,11,50,20.20
2018,06,20,11,51,20.10
2018,06,20,11,52,20.10
2018,06,20,11,53,20.10
2018,06,20,11,54,20.10
2018,06,20,11,55,20.10
2018,06,20,11,56,20.20
2018,06,20,11,57,20.30
2018,06,20,11,58,20.30
2018,06,20,11,59,20.40
2018,06,20,12,00,20.40
2018,06,20,12,01,20.50
2018,06,20,12,02,20.60
2018,06,20,12,03,20.60
2018,06,20,12,04,20.70
2018,06,20,12,05,20.70
2018,06,20,12,06,20.80
2018,06,20,12,07,20.70
2018,06,20,12,08,20.70
2018,06,20,12,09,20.80
2018,06,20,12,10,20.70
2018,06,20,12,11,20.70
2018,06,20,12,12,20.70
2018,06,20,12,13,20.80
2018,06,20,12,14,20.80
2018,06,20,12,15,20.80
2018,06,20,12,16,20.80
2018,06,20,12,17,20.80
2018,06,20,12,18,20.80
2018,06,20,12,19,20.80
2018,06,20,12,20,20.90
2018,06,20,12,21,20.90
2018,06,20,12,22,20.90
2018,06,20,12,23,20.90
2018,06,20,12,24,20.90
2018,06,20,12,25,20.80
2018,06,20,12,26,20.80
2018,06,20,12,27,20.80
2018,06,20,12,28,20.90
2018,06,20,12,29,21.00
2018,06,20,12,30,21.10
2018,06,20,12,31,21.20
2018,06,20,12,32,21.30
2018,06,20,12,33,21.30
2018,06,20,12,34,21.40
2018,06,20,12,35,21.50
2018,06,20,12,36,21.50
2018,06,20,12,37,21.60
2018,06,20,12,38,21.60
2018,06,20,12,39,21.60
2018,06,20,12,40,21.70
2018,06,20,12,41,21.70
2018,06,20,12,42,21.80
2018,06,20,12,43,21.80
2018,06,20,12,44,21.90
2018,06,20,12,45,21.90
2018,06,20,12,46,22.00
2018,06,20,12,47,22.00
2018,06,20,12,48,22.10
2018,06,20,12,49,22.10
2018,06,20,12,50,22.10
2018,06,20,12,51,22.10
2018,06,20,12,52,22.20
2018,06,20,12,53,22.20
2018,06,20,12,54,22.20
2018,06,20,12,55,22.20
2018,06,20,12,56,22.20
2018,06,20,12,57,22.20
2018,06,20,12,58,22.30
2018,06,20,12,59,22.30
2018,06,20,13,00,22.30
2018,06,20,13,01,22.40
2018,06,20,13,02,22.40
2018,06,20,13,03,22.40
2018,06,20,13,04,22.40
2018,06,20,13,05,22.50
2018,06,20,13,06,22.50
2018,06,20,13,07,22.50
2018,06,20,13,08,22.60
2018,06,20,13,09,22.60
2018,06,20,13,10,22.60
2018,06,20,13,11,22.60
2018,06,20,13,12,22.60
2018,06,20,13,13,22.70
2018,06,20,13,14,22.70
2018,06,20,13,15,22.70
2018,06,20,13,16,22.70
2018,06,20,13,17,22.70
2018,06,20,13,18,22.60
2018,06,20,13,19,22.60
2018,06,20,13,20,22.60
2018,06,20,13,21,22.60
2018,06,20,13,22,22.50
2018,06,20,13,23,22.50
2018,06,20,13,24,22.40
2018,06,20,13,25,22.40
2018,06,20,13,26,22.50
2018,06,20,13,27,22.50
2018,06,20,13,28,22.50
2018,06,20,13,29,22.50
2018,06,20,13,30,22.50
2018,06,20,13,31,22.40
2018,06,20,13,32,22.50
2018,06,20,13,33,22.50
2018,06,20,13,34,22.60
2018,06,20,13,35,22.60
2018,06,20,13,36,22.60
2018,06,20,13,37,22.70
2018,06,20,13,38,22.70
2018,06,20,13,39,22.80
2018,06,20,13,40,22.90
2018,06,20,13,41,22.90
2018,06,20,13,42,22.90
2018,06,20,13,43,22.90
2018,06,20,13,44,22.90
2018,06,20,13,45,22.80
2018,06,20,13,46,22.80
2018,06,20,13,47,22.80
2018,06,20,13,48,22.90
2018,06,20,13,49,23.00
2018,06,20,13,50,23.10
2018,06,20,13,51,23.20
2018,06,20,13,52,23.30
2018,06,20,13,53,23.40
2018,06,20,13,54,23.40
2018,06,20,13,55,23.50
2018,06,20,13,56,23.60
2018,06,20,13,57,23.60
2018,06,20,13,58,23.60
2018,06,20,13,59,23.50
2018,06,20,14,00,23.40
2018,06,20,14,01,23.30
2018,06,20,14,02,23.10
2018,06,20,14,03,23.00
2018,06,20,14,04,22.80
2018,06,20,14,05,22.60
2018,06,20,14,06,22.50
2018,06,20,14,07,22.40
2018,06,20,14,08,22.40
2018,06,20,14,09,22.30
2018,06,20,14,10,22.40
2018,06,20,14,11,22.50
2018,06,20,14,12,22.60
2018,06,20,14,13,22.60
2018,06,20,14,14,22.70
2018,06,20,14,15,22.80
2018,06,20,14,16,22.80
2018,06,20,14,17,22.80
2018,06,20,14,18,22.80
2018,06,20,14,19,22.80
2018,06,20,14,20,22.80
2018,06,20,14,21,22.80
2018,06,20,14,22,22.80
2018,06,20,14,23,22.80
2018,06,20,14,24,22.80
2018,06,20,14,25,22.90
2018,06,20,14,26,22.90
2018,06,20,14,27,22.80
2018,06,20,14,28,22.70
2018,06,20,14,29,22.60
2018,06,20,14,30,22.60
2018,06,20,14,31,22.60
2018,06,20,14,32,22.60
2018,06,20,14,33,22.60
2018,06,20,14,34,22.70
2018,06,20,14,35,22.80
2018,06,20,14,36,22.90
2018,06,20,14,37,23.00
2018,06,20,14,38,23.10
2018,06,20,14,39,23.10
2018,06,20,14,40,23.10
2018,06,20,14,41,23.10
2018,06,20,14,42,23.10
2018,06,20,14,43,23.00
2018,06,20,14,44,23.00
2018,06,20,14,45,23.00
2018,06,20,14,46,23.00
2018,06,20,14,47,23.10
2018,06,20,14,48,23.20
2018,06,20,14,49,23.20
2018,06,20,14,50,23.10
2018,06,20,14,51,23.00
2018,06,20,14,52,22.90
2018,06,20,14,53,22.80
2018,06,20,14,54,22.80
2018,06,20,14,55,22.70
2018,06,20,14,56,22.60
2018,06,20,14,57,22.40
2018,06,20,14,58,22.30
2018,06,20,14,59,22.30
2018,06,20,15,00,22.30
2018,06,20,15,01,22.40
2018,06,20,15,02,22.50
2018,06,20,15,03,22.70
2018,06,20,15,04,22.80
2018,06,20,15,05,23.00
2018,06,20,15,06,23.10
2018,06,20,15,07,23.10
2018,06,20,15,08,23.20
2018,06,20,15,09,23.20
2018,06,20,15,10,23.20
2018,06,20,15,11,23.20
2018,06,20,15,12,23.20
2018,06,20,15,13,23.20
2018,06,20,15,14,23.20
2018,06,20,15,15,23.10
2018,06,20,15,16,23.10
2018,06,20,15,17,23.00
2018,06,20,15,18,22.90
2018,06,20,15,19,22.80
2018,06,20,15,20,22.70
2018,06,20,15,21,22.70
2018,06,20,15,22,22.70
2018,06,20,15,23,22.70
2018,06,20,15,24,22.70
2018,06,20,15,25,22.70
2018,06,20,15,26,22.70
2018,06,20,15,27,22.70
2018,06,20,15,28,22.70
2018,06,20,15,29,22.70
2018,06,20,15,30,22.70
2018,06,20,15,31,22.70
2018,06,20,15,32,22.70
2018,06,20,15,33,22.70
2018,06,20,15,34,22.60
2018,06,20,15,35,22.60
2018,06,20,15,36,22.60
2018,06,20,15,37,22.60
2018,06,20,15,38,22.60
2018,06,20,15,39,22.60
2018,06,20,15,40,22.50
2018,06,20,15,41,22.40
2018,06,20,15,42,22.40
2018,06,20,15,43,22.30
2018,06,20,15,44,22.20
2018,06,20,15,45,22.20
2018,06,20,15,46,22.20
2018,06,20,15,47,22.10
2018,06,20,15,48,22.10
2018,06,20,15,49,22.10
2018,06,20,15,50,22.10
2018,06,20,15,51,22.20
2018,06,20,15,52,22.20
2018,06,20,15,53,22.30
2018,06,20,15,54,22.40
2018,06,20,15,55,22.50
2018,06,20,15,56,22.60
2018,06,20,15,57,22.70
2018,06,20,15,58,22.80
2018,06,20,15,59,22.90
2018,06,20,16,00,23.00
2018,06,20,16,01,23.10
2018,06,20,16,02,23.20
2018,06,20,16,03,23.30
2018,06,20,16,04,23.40
2018,06,20,16,05,23.50
2018,06,20,16,06,23.70
2018,06,20,16,07,23.80
2018,06,20,16,08,23.90
2018,06,20,16,09,24.00
2018,06,20,16,10,24.20
2018,06,20,16,11,24.30
2018,06,20,16,12,24.40
2018,06,20,16,13,24.50
2018,06,20,16,14,24.60
2018,06,20,16,15,24.70
2018,06,20,16,16,24.80
2018,06,20,16,17,24.80
2018,06,20,16,18,24.80
2018,06,20,16,19,24.80
2018,06,20,16,20,24.80
2018,06,20,16,21,24.80
2018,06,20,16,22,24.70
2018,06,20,16,23,24.50
2018,06,20,16,24,24.50
2018,06,20,16,25,24.40
2018,06,20,16,26,24.40
2018,06,20,16,27,24.40
2018,06,20,16,28,24.40
2018,06,20,16,29,24.50
2018,06,20,16,30,24.60
2018,06,20,16,31,24.80
2018,06,20,16,32,24.90
2018,06,20,16,33,25.10
2018,06,20,16,34,25.30
2018,06,20,16,35,25.40
2018,06,20,16,36,25.60
2018,06,20,16,37,25.70
2018,06,20,16,38,25.80
2018,06,20,16,39,25.80
2018,06,20,16,40,25.90
2018,06,20,16,41,26.00
2018,06,20,16,42,26.10
2018,06,20,16,43,26.10
2018,06,20,16,44,26.00
2018,06,20,16,45,26.00
2018,06,20,16,46,26.00
2018,06,20,16,47,25.90
2018,06,20,16,48,25.90
2018,06,20,16,49,25.90
2018,06,20,16,50,25.90
2018,06,20,16,51,26.00
2018,06,20,16,52,26.00
2018,06,20,16,53,26.10
2018,06,20,16,54,26.20
2018,06,20,16,55,26.30
2018,06,20,16,56,26.40
2018,06,20,16,57,26.50
2018,06,20,16,58,26.50
2018,06,20,16,59,26.60
2018,06,20,17,00,26.60
2018,06,20,17,01,26.50
2018,06,20,17,02,26.50
2018,06,20,17,03,26.50
2018,06,20,17,04,26.50
2018,06,20,17,05,26.60
2018,06,20,17,06,26.70
2018,06,20,17,07,26.80
2018,06,20,17,08,27.00
2018,06,20,17,09,27.10
2018,06,20,17,10,27.20
2018,06,20,17,11,27.40
2018,06,20,17,12,27.50
2018,06,20,17,13,27.60
2018,06,20,17,14,27.70
2018,06,20,17,15,27.80
2018,06,20,17,16,27.90
2018,06,20,17,17,27.90
2018,06,20,17,18,27.90
2018,06,20,17,19,27.90